Showing default

QIANFAN-10, 60388

Orbit data source: Space-Track

QIANFAN-10, 60388 is a Chinese payload satellite in LEO that was launched on Tue, 06 Aug 2024 UTC via a CHANG ZHENG 6A launch vehicle from the Taiyaun Space Center, China (TSC). Payload-class satellites include a variety of spacecraft equipped with specific instruments for various scientific and technological missions. These include communications satellites like Starlink; space stations such as the ISS; scientific satellites like the Hubble; Earth observation satellites from companies like Planet Labs, Umbra, and HawkEye 360; GPS; miniature CubeSats for education and research; and military/defense satellites.

Loading next visibility...
Identifier
60388, 2024-140K
Orbit
LEO
Country
Flag of CNCN / PRC
Related business
Manufacturer
SECM
Mission
Operational Commercial Communications
Bus & Motor
QIANFAN, Unknown motor
Mass
267 kg wet, ~267 kg dry
Launch date (UTC)
2024-08-06 (2 years ago)
Launch vehicle
CHANG ZHENG 6A
Launch site
Taiyaun Space Center, China (TSC)
Object type
Payload
Rocket body
Debris
Shape & HBR
Box + 1 Pan, 5.0 m
Radar Cross Section
13.200 m², Large (>1 m²)

Expand to show TLE details & history
Last TLE update: 13 hours ago

TLE from 13 hours ago
0 QIANFAN-10
1 60388U 24140K   26171.36471350  .00000126  00000-0  17684-3 0  9990
2 60388  88.9753 279.0321 0013789 355.9583   4.1454 13.51016906 93065
Epoch: 2026-06-20T08:45Z
TLE epoch observation values (Epoch: 2026-06-20T08:45:11.246Z)
Latitude
-0.00007°
Longitude
-120.84515°
Altitude
1,061.229 km
Speed
7.326 km/s
True Right ascension
18h 36m 07s
True Declination
0° 00' 00"
Sunlit
Object was in full shadow at epoch
Visualization orbit readout
Latitude
Unknown
Longitude
Unknown
Altitude
Unknown
Speed
Unknown
Apparent Right ascension
Unknown
Apparent Declination
Unknown
Sunlit
N/A
Visualization observer readout
Local Sidereal Time
08:42:10
Azimuth
Unknown
Elevation
Unknown
Doppler factor
Unknown
Orbital elements
Apogee altitude
1,075.835 km
Perigee altitude
1,055.306 km
Semi-major axis
7,443.708 km
Eccentricity
0.00138
Inclination
88.9753°
RAAN
279.0321°
Arg. of periapsis
355.9583°
True anomaly
4.15684°
Mean anomaly
4.1454°
Eccentric anomaly
4.15112°
Mean motion
3.37955 °/min
Orbital period
106.52 mins
BSTAR
0.00017684
Loading maneuver chart data...
Computing Atmospheric mass density...
Loading historical data...
Loading historical data...
Loading historical data...
Loading historical data...
Loading historical data...
Loading historical data...
Loading historical data...

Documentation

Showing up to 5 results
|